Location: ?????????
(55.6553°N, 38.9075°E)
Time: 23:27:25
(UTC+00:00)

USA 267 - Pass Details

Date: 18 October 2019
Orbit: 1101 x 1106 km, 123.0° (Epoch: 12 November)

Event Time Altitude Azimuth Distance (km) Brightness Sun altitude
Rises 00:32:28 0° 63° (ENE) 3,927 7.4 -29.2°
Reaches altitude 10° 00:35:04 10° 69° (ENE) 2,967 6.5 -28.9°
Maximum altitude 00:41:23 49° 144° (SE) 1,396 3.8 -28.1°
Enters shadow 00:42:50 42° 179° (S) 1,519 3.7 -27.9°
